Radioactive Concentration measured by Seawater Radiation Monitor near Fukushima Daiichi Nuclear Power Station
Date,Time,Cs137(Bq/L),Cs134(Bq/L),Total β(Bq/L)
2017/04/23,00:00,0.76,0.051,12
2017/04/23,00:10,0.74,0.074,12
2017/04/23,00:20,0.75,0.068,12
2017/04/23,00:30,0.75,0.068,11
2017/04/23,00:40,0.73,0.062,11
2017/04/23,00:50,0.73,0.072,12
2017/04/23,01:00,0.72,0.081,ND
2017/04/23,01:10,0.72,0.083,ND
2017/04/23,01:20,0.71,0.086,ND
2017/04/23,01:30,0.74,0.081,ND
2017/04/23,01:40,0.77,0.082,ND
2017/04/23,01:50,0.80,0.072,ND
2017/04/23,02:00,0.84,0.059,ND
2017/04/23,02:10,0.90,0.032,ND
2017/04/23,02:20,0.91,0.034,ND
2017/04/23,02:30,0.89,0.039,ND
2017/04/23,02:40,0.85,0.065,ND
2017/04/23,02:50,0.88,0.041,ND
2017/04/23,03:00,0.83,0.066,ND
2017/04/23,03:10,0.83,0.072,ND
2017/04/23,03:20,0.83,0.083,ND
2017/04/23,03:30,0.81,0.088,ND
2017/04/23,03:40,0.83,0.081,ND
2017/04/23,03:50,0.84,0.087,ND
2017/04/23,04:00,0.87,0.062,ND
2017/04/23,04:10,0.83,0.093,ND
2017/04/23,04:20,0.82,0.081,ND
2017/04/23,04:30,0.92,0.053,ND
2017/04/23,04:40,0.87,0.075,ND
2017/04/23,04:50,0.89,0.070,ND
2017/04/23,05:00,0.89,0.070,ND
2017/04/23,05:10,0.90,0.074,ND
2017/04/23,05:20,0.92,0.081,ND
2017/04/23,05:30,0.89,0.080,ND
2017/04/23,05:40,0.92,0.085,ND
2017/04/23,05:50,0.91,0.094,ND
2017/04/23,06:00,0.92,0.10,ND
2017/04/23,06:10,0.93,0.10,ND
2017/04/23,06:20,0.95,0.10,ND
2017/04/23,06:30,0.93,0.10,ND
2017/04/23,06:40,0.91,0.11,ND
2017/04/23,06:50,0.93,0.11,ND
2017/04/23,07:00,0.93,0.11,ND
2017/04/23,07:10,0.92,0.11,ND
2017/04/23,07:20,0.90,0.12,ND
2017/04/23,07:30,0.97,0.087,ND
2017/04/23,07:40,0.99,0.069,ND
2017/04/23,07:50,1.0,0.066,ND
2017/04/23,08:00,1.0,0.067,ND
2017/04/23,08:10,1.0,0.060,ND
2017/04/23,08:20,1.0,0.055,ND
2017/04/23,08:30,0.96,0.084,9.5
2017/04/23,08:40,0.96,0.065,9.9
2017/04/23,08:50,0.94,0.061,10
2017/04/23,09:00,0.94,0.066,8.8
2017/04/23,09:10,0.93,0.065,ND
2017/04/23,09:20,0.92,0.059,ND
2017/04/23,09:30,0.93,0.049,ND
2017/04/23,09:40,0.93,0.050,ND
2017/04/23,09:50,0.92,0.054,ND
2017/04/23,10:00,0.91,0.045,ND
2017/04/23,10:10,0.89,0.036,9.2
2017/04/23,10:20,0.85,0.056,ND
2017/04/23,10:30,0.82,0.061,ND
2017/04/23,10:40,0.79,0.064,ND
2017/04/23,10:50,0.82,0.033,ND
2017/04/23,11:00,0.79,0.043,ND
2017/04/23,11:10,0.75,0.071,ND
2017/04/23,11:20,0.75,0.073,ND
2017/04/23,11:30,0.80,0.052,ND
2017/04/23,11:40,0.78,0.069,ND
2017/04/23,11:50,0.80,0.071,ND
2017/04/23,12:00,0.83,0.035,9.7
2017/04/23,12:10,0.83,0.033,ND
2017/04/23,12:20,0.81,0.035,ND
2017/04/23,12:30,0.79,0.033,ND
2017/04/23,12:40,0.77,0.038,ND
2017/04/23,12:50,0.77,0.039,ND
2017/04/23,13:00,0.77,0.048,ND
2017/04/23,13:10,0.75,0.048,ND
2017/04/23,13:20,0.77,0.041,ND
2017/04/23,13:30,0.76,0.052,9.2
2017/04/23,13:40,0.71,0.077,ND
2017/04/23,13:50,0.70,0.075,10
2017/04/23,14:00,0.70,0.074,11
2017/04/23,14:10,0.73,0.049,12
2017/04/23,14:20,0.71,0.054,ND
2017/04/23,14:30,0.74,0.050,ND
2017/04/23,14:40,0.78,0.041,8.9
2017/04/23,14:50,0.79,0.048,ND
2017/04/23,15:00,0.81,0.054,ND
2017/04/23,15:10,0.82,0.054,ND
2017/04/23,15:20,0.84,0.045,ND
2017/04/23,15:30,0.85,0.041,ND
2017/04/23,15:40,0.84,0.045,ND
2017/04/23,15:50,0.85,0.037,ND
2017/04/23,16:00,0.86,0.027,ND
2017/04/23,16:10,0.87,0.025,ND
2017/04/23,16:20,0.85,0.025,ND
2017/04/23,16:30,0.78,0.053,ND
2017/04/23,16:40,0.77,0.049,ND
2017/04/23,16:50,0.74,0.055,9.6
2017/04/23,17:00,0.71,0.062,8.8
2017/04/23,17:10,0.72,0.065,9.0
2017/04/23,17:20,0.73,0.067,ND
2017/04/23,17:30,0.71,0.064,ND
2017/04/23,17:40,0.73,0.058,ND
2017/04/23,17:50,0.80,ND,ND
2017/04/23,18:00,0.73,0.048,ND
2017/04/23,18:10,0.72,0.049,ND
2017/04/23,18:20,0.71,0.045,ND
2017/04/23,18:30,0.76,0.027,8.9
2017/04/23,18:40,0.72,0.043,10
2017/04/23,18:50,0.70,0.054,ND
2017/04/23,19:00,0.72,0.047,ND
2017/04/23,19:10,0.70,0.046,ND
2017/04/23,19:20,0.72,0.044,ND
2017/04/23,19:30,0.72,0.034,ND
2017/04/23,19:40,0.78,ND,ND
2017/04/23,19:50,0.78,ND,ND
2017/04/23,20:00,0.76,ND,ND
2017/04/23,20:10,0.77,ND,ND
2017/04/23,20:20,0.72,0.026,ND
2017/04/23,20:30,0.71,0.028,ND
2017/04/23,20:40,0.70,0.033,ND
2017/04/23,20:50,0.68,0.043,ND
2017/04/23,21:00,0.68,0.042,ND
2017/04/23,21:10,0.68,0.051,ND
2017/04/23,21:20,0.68,0.051,ND
2017/04/23,21:30,0.68,0.053,ND
2017/04/23,21:40,0.67,0.062,ND
2017/04/23,21:50,0.68,0.040,ND
2017/04/23,22:00,0.68,0.042,ND
2017/04/23,22:10,0.66,0.044,ND
2017/04/23,22:20,0.62,0.068,ND
2017/04/23,22:30,0.60,0.076,ND
2017/04/23,22:40,0.63,0.053,ND
2017/04/23,22:50,0.61,0.077,ND
2017/04/23,23:00,0.62,0.068,ND
2017/04/23,23:10,0.65,0.061,ND
2017/04/23,23:20,0.70,0.026,ND
2017/04/23,23:30,0.75,ND,ND
2017/04/23,23:40,0.71,0.026,ND
2017/04/23,23:50,0.70,0.025,ND
